Total_Precipitation_Accumulation
0.71 0.87 1.12 1.42 1.63 1.74 1.93 2.06 2.28 2.45 2.47 2.39 2.11 1.75 1.48 1.36 1.30 1.18 1.05 0.87 0.76 0.69 0.63 0.57 0.45 0.36 0.31 0.27 0.25 0.23 0.20 0.17 0.18 0.18 0.13 0.07 0.05 0.04 0.03 0.02 0.01 0.01 0.02
0.54 0.69 0.97 1.17 1.35 1.51 1.61 1.84 1.94 2.19 2.23 2.16 2.15 1.97 1.85 1.69 1.56 1.47 1.27 1.09 0.98 0.86 0.74 0.67 0.63 0.50 0.41 0.37 0.36 0.35 0.31 0.26 0.25 0.27 0.27 0.18 0.11 0.07 0.06 0.05 0.04 0.04 0.04
0.44 0.56 0.77 0.97 1.08 1.24 1.48 1.58 1.65 1.90 2.11 2.19 2.34 2.41 2.33 2.01 1.70 1.52 1.41 1.27 1.17 1.06 0.93 0.81 0.78 0.74 0.60 0.50 0.51 0.51 0.48 0.47 0.46 0.43 0.46 0.40 0.25 0.15 0.09 0.08 0.07 0.06 0.04
0.39 0.46 0.53 0.69 0.82 0.94 1.23 1.54 1.64 1.78 1.98 2.26 2.30 2.23 2.07 1.83 1.53 1.47 1.51 1.47 1.35 1.23 1.10 1.01 0.94 0.90 0.82 0.71 0.69 0.70 0.73 0.74 0.68 0.62 0.58 0.55 0.47 0.42 0.28 0.13 0.09 0.08 0.07
0.41 0.42 0.43 0.53 0.65 0.76 0.96 1.23 1.50 1.74 1.92 2.04 2.11 2.16 2.01 1.82 1.74 1.61 1.52 1.43 1.35 1.29 1.21 1.14 1.10 1.04 1.00 0.98 0.99 0.94 0.92 0.91 0.88 0.82 0.76 0.72 0.64 0.56 0.54 0.36 0.21 0.18 0.17
0.39 0.36 0.37 0.46 0.57 0.64 0.75 0.91 1.16 1.37 1.57 1.76 1.87 1.94 1.93 1.93 1.88 1.68 1.53 1.51 1.47 1.41 1.31 1.26 1.24 1.22 1.17 1.13 1.13 1.13 1.14 1.13 1.09 1.06 0.96 0.89 0.82 0.71 0.75 0.68 0.48 0.40 0.32
0.35 0.34 0.36 0.41 0.51 0.58 0.64 0.73 0.85 0.99 1.16 1.34 1.49 1.59 1.71 1.80 1.74 1.61 1.46 1.44 1.40 1.33 1.29 1.28 1.29 1.30 1.25 1.23 1.24 1.23 1.20 1.23 1.25 1.23 1.19 1.11 1.00 0.91 0.94 0.97 0.80 0.64 0.48
0.38 0.36 0.35 0.38 0.45 0.50 0.58 0.65 0.71 0.78 0.90 1.01 1.13 1.27 1.42 1.61 1.62 1.56 1.40 1.28 1.24 1.21 1.27 1.26 1.21 1.19 1.19 1.18 1.17 1.18 1.13 1.14 1.15 1.14 1.14 1.13 1.05 1.04 1.06 1.12 1.19 1.08 0.83
0.39 0.36 0.35 0.35 0.41 0.45 0.50 0.58 0.67 0.72 0.78 0.89 1.00 1.08 1.13 1.23 1.33 1.40 1.41 1.28 1.20 1.18 1.18 1.16 1.12 1.05 1.02 1.04 1.06 1.04 1.03 1.03 1.02 1.03 1.04 1.05 1.00 1.01 1.05 1.13 1.30 1.45 1.29
0.39 0.35 0.36 0.40 0.43 0.43 0.44 0.52 0.67 0.69 0.68 0.75 0.84 0.91 0.96 1.06 1.14 1.17 1.20 1.18 1.12 1.12 1.10 1.07 0.99 0.96 0.91 0.88 0.89 0.88 0.86 0.88 0.87 0.88 0.91 0.91 0.90 0.94 0.99 1.04 1.12 1.27 1.36
0.40 0.39 0.43 0.49 0.51 0.45 0.46 0.52 0.58 0.67 0.69 0.68 0.74 0.78 0.76 0.82 0.94 1.04 1.04 1.05 1.04 1.01 1.00 0.98 0.92 0.86 0.82 0.78 0.74 0.70 0.71 0.74 0.73 0.74 0.77 0.78 0.79 0.83 0.85 0.89 0.94 0.99 1.11
0.36 0.42 0.49 0.51 0.51 0.51 0.53 0.55 0.56 0.61 0.68 0.67 0.67 0.71 0.72 0.71 0.78 0.88 0.97 1.00 1.05 1.00 0.96 0.92 0.89 0.83 0.76 0.73 0.72 0.68 0.65 0.65 0.66 0.65 0.68 0.70 0.73 0.78 0.82 0.86 0.86 0.85 0.88
0.35 0.36 0.43 0.48 0.49 0.52 0.60 0.61 0.62 0.62 0.60 0.60 0.61 0.61 0.60 0.62 0.66 0.72 0.81 0.85 0.91 0.91 0.87 0.88 0.83 0.77 0.72 0.69 0.67 0.66 0.65 0.63 0.61 0.62 0.66 0.68 0.73 0.79 0.81 0.83 0.84 0.83 0.84
0.32 0.33 0.38 0.42 0.45 0.50 0.54 0.53 0.59 0.59 0.57 0.54 0.59 0.60 0.57 0.59 0.63 0.70 0.74 0.76 0.79 0.84 0.83 0.84 0.85 0.83 0.77 0.74 0.72 0.70 0.69 0.69 0.69 0.69 0.71 0.73 0.73 0.73 0.72 0.74 0.75 0.78 0.81
0.29 0.33 0.36 0.38 0.40 0.39 0.39 0.41 0.46 0.52 0.52 0.51 0.58 0.60 0.60 0.65 0.73 0.75 0.73 0.73 0.74 0.78 0.81 0.83 0.87 0.87 0.85 0.82 0.80 0.79 0.80 0.83 0.85 0.82 0.79 0.76 0.77 0.73 0.70 0.71 0.73 0.75 0.79
0.23 0.25 0.29 0.35 0.36 0.35 0.35 0.35 0.37 0.41 0.42 0.42 0.46 0.50 0.55 0.63 0.70 0.73 0.72 0.71 0.71 0.76 0.81 0.83 0.87 0.92 0.94 1.04 0.98 0.88 0.87 0.89 0.87 0.83 0.77 0.73 0.74 0.71 0.72 0.71 0.72 0.78 0.87
0.18 0.18 0.21 0.27 0.28 0.27 0.29 0.31 0.32 0.35 0.38 0.36 0.37 0.41 0.50 0.58 0.61 0.66 0.71 0.73 0.74 0.80 0.90 0.93 0.94 0.99 1.09 1.16 0.99 0.91 0.83 0.82 0.80 0.74 0.69 0.65 0.62 0.64 0.59 0.62 0.68 0.72 0.80
0.14 0.15 0.18 0.21 0.20 0.21 0.23 0.23 0.23 0.29 0.37 0.41 0.42 0.43 0.46 0.53 0.60 0.62 0.69 0.76 0.79 0.87 0.98 1.03 1.00 1.01 1.06 1.10 0.99 0.90 0.76 0.71 0.68 0.64 0.61 0.59 0.56 0.56 0.61 0.68 0.73 0.66 0.60
0.14 0.14 0.15 0.16 0.15 0.17 0.20 0.20 0.20 0.24 0.32 0.37 0.41 0.41 0.44 0.50 0.58 0.66 0.74 0.79 0.82 0.88 0.94 0.94 0.91 0.87 0.89 0.89 0.82 0.80 0.71 0.69 0.63 0.58 0.57 0.57 0.56 0.61 0.74 0.79 0.78 0.63 0.51
0.17 0.17 0.16 0.16 0.15 0.17 0.20 0.22 0.24 0.28 0.34 0.36 0.40 0.41 0.42 0.48 0.55 0.63 0.73 0.79 0.79 0.79 0.77 0.77 0.73 0.70 0.71 0.74 0.68 0.69 0.67 0.67 0.61 0.57 0.56 0.60 0.59 0.69 0.81 0.77 0.75 0.66 0.52
0.17 0.21 0.24 0.24 0.25 0.27 0.28 0.29 0.30 0.33 0.36 0.38 0.42 0.44 0.46 0.50 0.55 0.60 0.63 0.65 0.64 0.60 0.58 0.56 0.53 0.51 0.53 0.57 0.55 0.58 0.59 0.60 0.60 0.58 0.53 0.53 0.66 0.75 0.79 0.71 0.57 0.58 0.65
0.17 0.22 0.27 0.29 0.31 0.32 0.34 0.35 0.37 0.38 0.39 0.40 0.43 0.46 0.47 0.46 0.45 0.46 0.48 0.48 0.47 0.46 0.44 0.44 0.43 0.43 0.45 0.48 0.51 0.54 0.59 0.62 0.57 0.53 0.48 0.50 0.65 0.65 0.61 0.56 0.56 0.63 0.60
0.16 0.19 0.22 0.23 0.25 0.30 0.35 0.38 0.39 0.38 0.36 0.38 0.39 0.38 0.37 0.36 0.36 0.36 0.36 0.37 0.40 0.42 0.43 0.42 0.41 0.40 0.41 0.44 0.52 0.52 0.58 0.62 0.56 0.51 0.54 0.57 0.57 0.51 0.48 0.52 0.56 0.54 0.50
0.13 0.14 0.16 0.17 0.18 0.20 0.25 0.29 0.30 0.30 0.28 0.30 0.29 0.27 0.26 0.27 0.27 0.27 0.28 0.31 0.34 0.35 0.37 0.39 0.38 0.37 0.37 0.37 0.41 0.48 0.52 0.57 0.54 0.55 0.57 0.53 0.49 0.47 0.47 0.52 0.51 0.46 0.49
0.14 0.12 0.11 0.12 0.13 0.14 0.16 0.19 0.22 0.22 0.21 0.22 0.20 0.20 0.20 0.23 0.26 0.26 0.27 0.30 0.32 0.36 0.37 0.37 0.36 0.38 0.38 0.40 0.50 0.54 0.52 0.57 0.58 0.55 0.46 0.43 0.45 0.46 0.44 0.43 0.45 0.48 0.51
0.15 0.12 0.11 0.11 0.12 0.12 0.13 0.14 0.17 0.19 0.20 0.19 0.19 0.19 0.17 0.19 0.25 0.29 0.30 0.34 0.36 0.40 0.44 0.45 0.41 0.38 0.41 0.45 0.50 0.53 0.57 0.61 0.60 0.52 0.43 0.41 0.41 0.43 0.43 0.43 0.44 0.46 0.51